Location: Beneden-Haastrecht
(52.0012°N, 4.7557°E)
Time: 03:02:24
(UTC+00:00)

CZ-4C R/B - Pass Details

Date: 24 October 2020
Orbit: 624 x 1378 km, 63.4° (Epoch: 27 November)

Event Time Altitude Azimuth Distance (km) Brightness Sun altitude
Rises 17:38:50 0° 292° (WNW) 3,413 6.6 -11.6°
Reaches altitude 10° 17:41:27 10° 304° (WNW) 2,590 5.6 -12.0°
Maximum altitude 17:46:50 31° 5° (N) 1,727 3.7 -12.8°
Enters shadow 17:52:05 14° 60° (ENE) 2,752 4.3 -13.6°
